Location: Dompnac
(44.5644°N, 4.1026°E)
Time: 11:40:52
(UTC+00:00)

Cosmos 2034 Rocket - Pass Details

Date: 19 September 2020
Orbit: 957 x 1002 km, 82.9° (Epoch: 29 October)

Event Time Altitude Azimuth Distance (km) Brightness Sun altitude
Rises 19:19:10 0° 181° (S) 3,711 6.9 -17.1°
Reaches altitude 10° 19:21:41 10° 180° (S) 2,765 6.2 -17.5°
Maximum altitude 19:28:02 77° 95° (E) 1,028 3.9 -18.6°
Drops below altitude 10° 19:34:23 10° 11° (N) 2,769 6.5 -19.6°
Sets 19:36:55 0° 10° (N) 3,717 7.2 -20.0°
